<?xml version="1.0" encoding="UTF-8" standalone="no" ?>
<gpx xmlns="http://www.topografix.com/GPX/1/1" xmlns:xsi="http://www.w3.org/2001/XMLSchema-instance" xsi:schemaLocation="http://www.topografix.com/GPX/1/1 http://www.topografix.com/GPX/1/1/gpx.xsd" version="1.1" creator="VisuGPX - https://www.visugpx.com">
  <metadata>
    <name>ChapelleE_BoucleNordOuest_12.5km</name>
    <desc><![CDATA[gnerando idor:10579130]]></desc>
  </metadata>
  <trk>
    <name><![CDATA[ChapelleE_boucleNordOuest_12.5km-10579130]]></name>
    <extensions>
      <line xmlns="http://www.topografix.com/GPX/gpx_style/0/2">
        <color>0000FF</color>
        <width>4</width>
      </line>
    </extensions>
    <trkseg>
      <trkpt lat="47.29256" lon="-1.56564">
        <ele>23</ele>
        <time>2023-11-03T09:00:20Z</time>
      </trkpt>
      <trkpt lat="47.29241" lon="-1.56621">
        <ele>19</ele>
        <time>2023-11-03T09:01:15Z</time>
      </trkpt>
      <trkpt lat="47.29342" lon="-1.57162">
        <ele>16</ele>
        <time>2023-11-03T09:09:43Z</time>
      </trkpt>
      <trkpt lat="47.2922" lon="-1.57708">
        <ele>20</ele>
        <time>2023-11-03T09:18:24Z</time>
      </trkpt>
      <trkpt lat="47.29342" lon="-1.58055">
        <ele>36</ele>
        <time>2023-11-03T09:24:17Z</time>
      </trkpt>
      <trkpt lat="47.29432" lon="-1.58167">
        <ele>39</ele>
        <time>2023-11-03T09:26:54Z</time>
      </trkpt>
      <trkpt lat="47.29445" lon="-1.58438">
        <ele>35</ele>
        <time>2023-11-03T09:31:00Z</time>
      </trkpt>
      <trkpt lat="47.2947" lon="-1.58989">
        <ele>42</ele>
        <time>2023-11-03T09:39:20Z</time>
      </trkpt>
      <trkpt lat="47.29373" lon="-1.59198">
        <ele>48</ele>
        <time>2023-11-03T09:43:09Z</time>
      </trkpt>
      <trkpt lat="47.29428" lon="-1.59377">
        <ele>56</ele>
        <time>2023-11-03T09:46:07Z</time>
      </trkpt>
      <trkpt lat="47.30041" lon="-1.59055">
        <ele>53</ele>
        <time>2023-11-03T10:00:36Z</time>
      </trkpt>
      <trkpt lat="47.30162" lon="-1.59372">
        <ele>49</ele>
        <time>2023-11-03T10:06:05Z</time>
      </trkpt>
      <trkpt lat="47.3037" lon="-1.59413">
        <ele>40</ele>
        <time>2023-11-03T10:10:45Z</time>
      </trkpt>
      <trkpt lat="47.30477" lon="-1.59357">
        <ele>37</ele>
        <time>2023-11-03T10:13:16Z</time>
      </trkpt>
      <trkpt lat="47.30858" lon="-1.59392">
        <ele>46</ele>
        <time>2023-11-03T10:21:46Z</time>
      </trkpt>
      <trkpt lat="47.30986" lon="-1.59505">
        <ele>35</ele>
        <time>2023-11-03T10:25:05Z</time>
      </trkpt>
      <trkpt lat="47.30999" lon="-1.59709">
        <ele>30</ele>
        <time>2023-11-03T10:28:10Z</time>
      </trkpt>
      <trkpt lat="47.31127" lon="-1.59642">
        <ele>30</ele>
        <time>2023-11-03T10:31:11Z</time>
      </trkpt>
      <trkpt lat="47.31183" lon="-1.59545">
        <ele>29</ele>
        <time>2023-11-03T10:33:07Z</time>
      </trkpt>
      <trkpt lat="47.31266" lon="-1.59508">
        <ele>23</ele>
        <time>2023-11-03T10:35:02Z</time>
      </trkpt>
      <trkpt lat="47.31338" lon="-1.59778">
        <ele>25</ele>
        <time>2023-11-03T10:39:25Z</time>
      </trkpt>
      <trkpt lat="47.31335" lon="-1.59979">
        <ele>21</ele>
        <time>2023-11-03T10:42:27Z</time>
      </trkpt>
      <trkpt lat="47.31442" lon="-1.59974">
        <ele>18</ele>
        <time>2023-11-03T10:44:50Z</time>
      </trkpt>
      <trkpt lat="47.31553" lon="-1.59372">
        <ele>15</ele>
        <time>2023-11-03T10:54:14Z</time>
      </trkpt>
      <trkpt lat="47.31529" lon="-1.58953">
        <ele>13</ele>
        <time>2023-11-03T11:00:35Z</time>
      </trkpt>
      <trkpt lat="47.32155" lon="-1.59193">
        <ele>37</ele>
        <time>2023-11-03T11:14:58Z</time>
      </trkpt>
      <trkpt lat="47.32162" lon="-1.59357">
        <ele>39</ele>
        <time>2023-11-03T11:17:26Z</time>
      </trkpt>
      <trkpt lat="47.32231" lon="-1.59351">
        <ele>38</ele>
        <time>2023-11-03T11:18:59Z</time>
      </trkpt>
      <trkpt lat="47.32314" lon="-1.59479">
        <ele>40</ele>
        <time>2023-11-03T11:21:39Z</time>
      </trkpt>
      <trkpt lat="47.32581" lon="-1.59545">
        <ele>43</ele>
        <time>2023-11-03T11:27:40Z</time>
      </trkpt>
      <trkpt lat="47.32387" lon="-1.58708">
        <ele>42</ele>
        <time>2023-11-03T11:41:00Z</time>
      </trkpt>
      <trkpt lat="47.322" lon="-1.58351">
        <ele>40</ele>
        <time>2023-11-03T11:47:48Z</time>
      </trkpt>
      <trkpt lat="47.3164" lon="-1.57734">
        <ele>41</ele>
        <time>2023-11-03T12:03:21Z</time>
      </trkpt>
      <trkpt lat="47.31003" lon="-1.56989">
        <ele>42</ele>
        <time>2023-11-03T12:21:26Z</time>
      </trkpt>
      <trkpt lat="47.30874" lon="-1.56675">
        <ele>37</ele>
        <time>2023-11-03T12:26:58Z</time>
      </trkpt>
      <trkpt lat="47.30842" lon="-1.56616">
        <ele>37</ele>
        <time>2023-11-03T12:28:07Z</time>
      </trkpt>
      <trkpt lat="47.30797" lon="-1.56568">
        <ele>37</ele>
        <time>2023-11-03T12:29:21Z</time>
      </trkpt>
      <trkpt lat="47.30768" lon="-1.56492">
        <ele>38</ele>
        <time>2023-11-03T12:30:40Z</time>
      </trkpt>
      <trkpt lat="47.30746" lon="-1.56484">
        <ele>38</ele>
        <time>2023-11-03T12:31:10Z</time>
      </trkpt>
      <trkpt lat="47.30634" lon="-1.5658">
        <ele>38</ele>
        <time>2023-11-03T12:34:03Z</time>
      </trkpt>
      <trkpt lat="47.30544" lon="-1.56492">
        <ele>37</ele>
        <time>2023-11-03T12:36:27Z</time>
      </trkpt>
      <trkpt lat="47.30455" lon="-1.56359">
        <ele>33</ele>
        <time>2023-11-03T12:39:16Z</time>
      </trkpt>
      <trkpt lat="47.30345" lon="-1.56268">
        <ele>31</ele>
        <time>2023-11-03T12:42:04Z</time>
      </trkpt>
      <trkpt lat="47.30256" lon="-1.56213">
        <ele>31</ele>
        <time>2023-11-03T12:44:13Z</time>
      </trkpt>
      <trkpt lat="47.30164" lon="-1.56196">
        <ele>31</ele>
        <time>2023-11-03T12:46:17Z</time>
      </trkpt>
      <trkpt lat="47.29929" lon="-1.56186">
        <ele>34</ele>
        <time>2023-11-03T12:51:30Z</time>
      </trkpt>
      <trkpt lat="47.29811" lon="-1.56434">
        <ele>32</ele>
        <time>2023-11-03T12:56:05Z</time>
      </trkpt>
      <trkpt lat="47.29673" lon="-1.56504">
        <ele>38</ele>
        <time>2023-11-03T12:59:19Z</time>
      </trkpt>
      <trkpt lat="47.29611" lon="-1.56528">
        <ele>38</ele>
        <time>2023-11-03T13:00:45Z</time>
      </trkpt>
      <trkpt lat="47.29647" lon="-1.5669">
        <ele>33</ele>
        <time>2023-11-03T13:03:19Z</time>
      </trkpt>
      <trkpt lat="47.29615" lon="-1.56721">
        <ele>33</ele>
        <time>2023-11-03T13:04:10Z</time>
      </trkpt>
      <trkpt lat="47.29613" lon="-1.56752">
        <ele>32</ele>
        <time>2023-11-03T13:04:38Z</time>
      </trkpt>
      <trkpt lat="47.29557" lon="-1.56779">
        <ele>31</ele>
        <time>2023-11-03T13:05:57Z</time>
      </trkpt>
      <trkpt lat="47.29402" lon="-1.5674">
        <ele>24</ele>
        <time>2023-11-03T13:09:27Z</time>
      </trkpt>
      <trkpt lat="47.29271" lon="-1.56623">
        <ele>21</ele>
        <time>2023-11-03T13:12:51Z</time>
      </trkpt>
    </trkseg>
  </trk>
  <trk>
    <name><![CDATA[Gergaudière_Treillières-10577933]]></name>
    <extensions>
      <line xmlns="http://www.topografix.com/GPX/gpx_style/0/2">
        <color>00FF00</color>
        <width>4</width>
      </line>
    </extensions>
    <trkseg>
      <trkpt lat="47.28968" lon="-1.58588">
        <ele>41</ele>
        <time>2023-11-03T09:02:14Z</time>
      </trkpt>
      <trkpt lat="47.28781" lon="-1.59285">
        <ele>51</ele>
        <time>2023-11-03T09:13:32Z</time>
      </trkpt>
      <trkpt lat="47.28746" lon="-1.59602">
        <ele>52</ele>
        <time>2023-11-03T09:18:23Z</time>
      </trkpt>
      <trkpt lat="47.2912" lon="-1.59714">
        <ele>56</ele>
        <time>2023-11-03T09:26:52Z</time>
      </trkpt>
      <trkpt lat="47.29563" lon="-1.5975">
        <ele>58</ele>
        <time>2023-11-03T09:36:45Z</time>
      </trkpt>
      <trkpt lat="47.30148" lon="-1.60336">
        <ele>62</ele>
        <time>2023-11-03T09:52:28Z</time>
      </trkpt>
      <trkpt lat="47.29992" lon="-1.60428">
        <ele>64</ele>
        <time>2023-11-03T09:56:13Z</time>
      </trkpt>
      <trkpt lat="47.303" lon="-1.60862">
        <ele>59</ele>
        <time>2023-11-03T10:05:41Z</time>
      </trkpt>
      <trkpt lat="47.30508" lon="-1.60847">
        <ele>60</ele>
        <time>2023-11-03T10:10:19Z</time>
      </trkpt>
      <trkpt lat="47.3075" lon="-1.60724">
        <ele>48</ele>
        <time>2023-11-03T10:16:00Z</time>
      </trkpt>
      <trkpt lat="47.30809" lon="-1.60852">
        <ele>41</ele>
        <time>2023-11-03T10:18:21Z</time>
      </trkpt>
      <trkpt lat="47.31563" lon="-1.60689">
        <ele>20</ele>
        <time>2023-11-03T10:35:17Z</time>
      </trkpt>
      <trkpt lat="47.31401" lon="-1.60428">
        <ele>31</ele>
        <time>2023-11-03T10:40:38Z</time>
      </trkpt>
      <trkpt lat="47.312" lon="-1.60449">
        <ele>35</ele>
        <time>2023-11-03T10:45:07Z</time>
      </trkpt>
      <trkpt lat="47.31069" lon="-1.60132">
        <ele>41</ele>
        <time>2023-11-03T10:50:42Z</time>
      </trkpt>
      <trkpt lat="47.31373" lon="-1.59949">
        <ele>20</ele>
        <time>2023-11-03T10:58:01Z</time>
      </trkpt>
      <trkpt lat="47.3146" lon="-1.60005">
        <ele>21</ele>
        <time>2023-11-03T11:00:07Z</time>
      </trkpt>
      <trkpt lat="47.31463" lon="-1.60122">
        <ele>22</ele>
        <time>2023-11-03T11:01:53Z</time>
      </trkpt>
      <trkpt lat="47.31539" lon="-1.60102">
        <ele>32</ele>
        <time>2023-11-03T11:03:36Z</time>
      </trkpt>
      <trkpt lat="47.31491" lon="-1.59872">
        <ele>23</ele>
        <time>2023-11-03T11:07:14Z</time>
      </trkpt>
      <trkpt lat="47.31584" lon="-1.59847">
        <ele>35</ele>
        <time>2023-11-03T11:09:20Z</time>
      </trkpt>
      <trkpt lat="47.3166" lon="-1.60056">
        <ele>40</ele>
        <time>2023-11-03T11:12:55Z</time>
      </trkpt>
      <trkpt lat="47.3193" lon="-1.59949">
        <ele>45</ele>
        <time>2023-11-03T11:19:08Z</time>
      </trkpt>
      <trkpt lat="47.32124" lon="-1.6">
        <ele>48</ele>
        <time>2023-11-03T11:23:31Z</time>
      </trkpt>
      <trkpt lat="47.32072" lon="-1.59714">
        <ele>42</ele>
        <time>2023-11-03T11:27:59Z</time>
      </trkpt>
      <trkpt lat="47.32155" lon="-1.59387">
        <ele>39</ele>
        <time>2023-11-03T11:33:14Z</time>
      </trkpt>
      <trkpt lat="47.32297" lon="-1.59469">
        <ele>40</ele>
        <time>2023-11-03T11:36:38Z</time>
      </trkpt>
      <trkpt lat="47.32677" lon="-1.59591">
        <ele>45</ele>
        <time>2023-11-03T11:45:17Z</time>
      </trkpt>
      <trkpt lat="47.32899" lon="-1.59285">
        <ele>47</ele>
        <time>2023-11-03T11:52:02Z</time>
      </trkpt>
    </trkseg>
  </trk>
  <trk>
    <name><![CDATA[ChapelleE_BoucleNordOuest_12.5km_3]]></name>
    <extensions>
      <line xmlns="http://www.topografix.com/GPX/gpx_style/0/2">
        <color>FF0000</color>
        <width>4</width>
      </line>
    </extensions>
    <trkseg>
      <trkpt lat="47.29578" lon="-1.55882">
        <ele>45.7</ele>
        <extensions>
          <visugpx:TrkExtension xmlns:visugpx="https://www.visugpx.com/editgpx/">
            <visugpx:node>21</visugpx:node>
            </visugpx:TrkExtension>
        </extensions>
      </trkpt>
      <trkpt lat="47.29513" lon="-1.55854">
        <ele>45.9</ele>
      </trkpt>
      <trkpt lat="47.29452" lon="-1.55831">
        <ele>46</ele>
      </trkpt>
      <trkpt lat="47.29384" lon="-1.55823">
        <ele>46</ele>
      </trkpt>
      <trkpt lat="47.29377" lon="-1.55835">
        <ele>46</ele>
      </trkpt>
      <trkpt lat="47.29348" lon="-1.55888">
        <ele>46</ele>
      </trkpt>
      <trkpt lat="47.29297" lon="-1.55986">
        <ele>46.3</ele>
      </trkpt>
      <trkpt lat="47.29278" lon="-1.56026">
        <ele>46.1</ele>
      </trkpt>
      <trkpt lat="47.29281" lon="-1.56032">
        <ele>46</ele>
      </trkpt>
      <trkpt lat="47.29282" lon="-1.56048">
        <ele>46</ele>
      </trkpt>
      <trkpt lat="47.29285" lon="-1.56131">
        <ele>43.5</ele>
      </trkpt>
      <trkpt lat="47.29284" lon="-1.56162">
        <ele>41.7</ele>
      </trkpt>
      <trkpt lat="47.29281" lon="-1.56196">
        <ele>40.2</ele>
      </trkpt>
      <trkpt lat="47.29277" lon="-1.56216">
        <ele>39.2</ele>
      </trkpt>
      <trkpt lat="47.29262" lon="-1.56256">
        <ele>38.2</ele>
      </trkpt>
      <trkpt lat="47.29256" lon="-1.56281">
        <ele>37.1</ele>
      </trkpt>
      <trkpt lat="47.29235" lon="-1.56369">
        <ele>33.7</ele>
      </trkpt>
      <trkpt lat="47.29222" lon="-1.56446">
        <ele>30.9</ele>
      </trkpt>
      <trkpt lat="47.29219" lon="-1.56468">
        <ele>29.3</ele>
      </trkpt>
      <trkpt lat="47.2922" lon="-1.56479">
        <ele>28.5</ele>
      </trkpt>
      <trkpt lat="47.29223" lon="-1.56489">
        <ele>27.7</ele>
      </trkpt>
      <trkpt lat="47.29246" lon="-1.56567">
        <ele>19.9</ele>
      </trkpt>
      <trkpt lat="47.29247" lon="-1.56586">
        <ele>17.9</ele>
      </trkpt>
      <trkpt lat="47.29246" lon="-1.56609">
        <ele>16.4</ele>
      </trkpt>
      <trkpt lat="47.29244" lon="-1.56619">
        <ele>15.8</ele>
      </trkpt>
      <trkpt lat="47.29239" lon="-1.56633">
        <ele>14.9</ele>
      </trkpt>
      <trkpt lat="47.29235" lon="-1.56636">
        <ele>14.8</ele>
      </trkpt>
      <trkpt lat="47.29232" lon="-1.56633">
        <ele>15.2</ele>
        <extensions>
          <visugpx:TrkExtension xmlns:visugpx="https://www.visugpx.com/editgpx/">
            <visugpx:node>1</visugpx:node>
            </visugpx:TrkExtension>
        </extensions>
      </trkpt>
      <trkpt lat="47.29235" lon="-1.56636">
        <ele>14.8</ele>
      </trkpt>
      <trkpt lat="47.2924" lon="-1.56644">
        <ele>14</ele>
      </trkpt>
      <trkpt lat="47.29245" lon="-1.56657">
        <ele>13.2</ele>
      </trkpt>
      <trkpt lat="47.29259" lon="-1.56738">
        <ele>10.5</ele>
      </trkpt>
      <trkpt lat="47.29259" lon="-1.5674">
        <ele>10.4</ele>
      </trkpt>
      <trkpt lat="47.29263" lon="-1.56767">
        <ele>9.8</ele>
      </trkpt>
      <trkpt lat="47.2927" lon="-1.56814">
        <ele>13.8</ele>
      </trkpt>
      <trkpt lat="47.29292" lon="-1.5696">
        <ele>17.8</ele>
      </trkpt>
      <trkpt lat="47.29293" lon="-1.56978">
        <ele>18.5</ele>
      </trkpt>
      <trkpt lat="47.2929" lon="-1.56994">
        <ele>19.5</ele>
      </trkpt>
      <trkpt lat="47.29298" lon="-1.57004">
        <ele>18.8</ele>
      </trkpt>
      <trkpt lat="47.29332" lon="-1.571">
        <ele>15.4</ele>
      </trkpt>
      <trkpt lat="47.29335" lon="-1.57118">
        <ele>15.7</ele>
      </trkpt>
      <trkpt lat="47.29335" lon="-1.57141">
        <ele>15.6</ele>
      </trkpt>
      <trkpt lat="47.29331" lon="-1.57164">
        <ele>15.3</ele>
      </trkpt>
      <trkpt lat="47.29327" lon="-1.57173">
        <ele>15.2</ele>
      </trkpt>
      <trkpt lat="47.29302" lon="-1.57241">
        <ele>14.1</ele>
      </trkpt>
      <trkpt lat="47.29292" lon="-1.57278">
        <ele>14.5</ele>
      </trkpt>
      <trkpt lat="47.29282" lon="-1.57326">
        <ele>14.7</ele>
      </trkpt>
      <trkpt lat="47.29261" lon="-1.57516">
        <ele>14.6</ele>
      </trkpt>
      <trkpt lat="47.29254" lon="-1.57544">
        <ele>14.1</ele>
      </trkpt>
      <trkpt lat="47.29248" lon="-1.57564">
        <ele>13.9</ele>
      </trkpt>
      <trkpt lat="47.29212" lon="-1.57661">
        <ele>14.3</ele>
      </trkpt>
      <trkpt lat="47.29207" lon="-1.57696">
        <ele>14.6</ele>
      </trkpt>
      <trkpt lat="47.29205" lon="-1.57709">
        <ele>14.8</ele>
      </trkpt>
      <trkpt lat="47.29213" lon="-1.57719">
        <ele>14.9</ele>
      </trkpt>
      <trkpt lat="47.29217" lon="-1.5773">
        <ele>15</ele>
      </trkpt>
      <trkpt lat="47.29221" lon="-1.5775">
        <ele>15</ele>
      </trkpt>
      <trkpt lat="47.29225" lon="-1.57775">
        <ele>16.2</ele>
      </trkpt>
      <trkpt lat="47.29239" lon="-1.5782">
        <ele>19.4</ele>
      </trkpt>
      <trkpt lat="47.29248" lon="-1.57843">
        <ele>21.1</ele>
      </trkpt>
      <trkpt lat="47.29261" lon="-1.5786">
        <ele>23.1</ele>
      </trkpt>
      <trkpt lat="47.29299" lon="-1.57935">
        <ele>30.3</ele>
      </trkpt>
      <trkpt lat="47.29345" lon="-1.58041">
        <ele>37.9</ele>
      </trkpt>
      <trkpt lat="47.29381" lon="-1.5804">
        <ele>38.4</ele>
      </trkpt>
      <trkpt lat="47.29383" lon="-1.58041">
        <ele>38.5</ele>
        <extensions>
          <visugpx:TrkExtension xmlns:visugpx="https://www.visugpx.com/editgpx/">
            <visugpx:node>2</visugpx:node>
            </visugpx:TrkExtension>
        </extensions>
      </trkpt>
      <trkpt lat="47.29384" lon="-1.58042">
        <ele>38.5</ele>
      </trkpt>
      <trkpt lat="47.29388" lon="-1.58047">
        <ele>38.7</ele>
      </trkpt>
      <trkpt lat="47.29421" lon="-1.58137">
        <ele>39.1</ele>
      </trkpt>
      <trkpt lat="47.29427" lon="-1.5817">
        <ele>38.6</ele>
      </trkpt>
      <trkpt lat="47.29426" lon="-1.58189">
        <ele>38.7</ele>
      </trkpt>
      <trkpt lat="47.29422" lon="-1.58214">
        <ele>38.2</ele>
      </trkpt>
      <trkpt lat="47.29423" lon="-1.58226">
        <ele>38</ele>
      </trkpt>
      <trkpt lat="47.29438" lon="-1.58284">
        <ele>36.8</ele>
      </trkpt>
      <trkpt lat="47.29459" lon="-1.58377">
        <ele>35.2</ele>
      </trkpt>
      <trkpt lat="47.2946" lon="-1.58385">
        <ele>35.1</ele>
      </trkpt>
      <trkpt lat="47.29459" lon="-1.58393">
        <ele>34.9</ele>
      </trkpt>
      <trkpt lat="47.29446" lon="-1.58411">
        <ele>34.2</ele>
      </trkpt>
      <trkpt lat="47.2944" lon="-1.58423">
        <ele>33.6</ele>
      </trkpt>
      <trkpt lat="47.29439" lon="-1.58436">
        <ele>33.1</ele>
      </trkpt>
      <trkpt lat="47.2944" lon="-1.58441">
        <ele>33</ele>
      </trkpt>
      <trkpt lat="47.29435" lon="-1.58445">
        <ele>32.7</ele>
      </trkpt>
      <trkpt lat="47.29442" lon="-1.58471">
        <ele>32.8</ele>
      </trkpt>
      <trkpt lat="47.29444" lon="-1.58494">
        <ele>33</ele>
      </trkpt>
      <trkpt lat="47.29453" lon="-1.58597">
        <ele>33.3</ele>
      </trkpt>
      <trkpt lat="47.29454" lon="-1.58663">
        <ele>33.3</ele>
      </trkpt>
      <trkpt lat="47.29453" lon="-1.58683">
        <ele>33.3</ele>
      </trkpt>
      <trkpt lat="47.29454" lon="-1.58727">
        <ele>33.5</ele>
      </trkpt>
      <trkpt lat="47.29456" lon="-1.58743">
        <ele>34.2</ele>
      </trkpt>
      <trkpt lat="47.29461" lon="-1.58762">
        <ele>34.9</ele>
      </trkpt>
      <trkpt lat="47.29458" lon="-1.58787">
        <ele>35.1</ele>
      </trkpt>
      <trkpt lat="47.29452" lon="-1.58808">
        <ele>35.3</ele>
      </trkpt>
      <trkpt lat="47.2945" lon="-1.58837">
        <ele>35.5</ele>
      </trkpt>
      <trkpt lat="47.29455" lon="-1.58904">
        <ele>37.3</ele>
      </trkpt>
      <trkpt lat="47.29465" lon="-1.58934">
        <ele>39.1</ele>
      </trkpt>
      <trkpt lat="47.29469" lon="-1.58982">
        <ele>41</ele>
      </trkpt>
      <trkpt lat="47.29466" lon="-1.59001">
        <ele>41.3</ele>
      </trkpt>
      <trkpt lat="47.29462" lon="-1.59013">
        <ele>41.2</ele>
      </trkpt>
      <trkpt lat="47.29436" lon="-1.5905">
        <ele>41.5</ele>
      </trkpt>
      <trkpt lat="47.2942" lon="-1.59066">
        <ele>41.5</ele>
      </trkpt>
      <trkpt lat="47.29409" lon="-1.59081">
        <ele>41.6</ele>
      </trkpt>
      <trkpt lat="47.29401" lon="-1.59112">
        <ele>42.5</ele>
      </trkpt>
      <trkpt lat="47.29397" lon="-1.59117">
        <ele>42.7</ele>
      </trkpt>
      <trkpt lat="47.29384" lon="-1.59128">
        <ele>43.1</ele>
      </trkpt>
      <trkpt lat="47.29369" lon="-1.59175">
        <ele>45.7</ele>
        <extensions>
          <visugpx:TrkExtension xmlns:visugpx="https://www.visugpx.com/editgpx/">
            <visugpx:node>3</visugpx:node>
            </visugpx:TrkExtension>
        </extensions>
      </trkpt>
      <trkpt lat="47.29368" lon="-1.59176">
        <ele>45.7</ele>
      </trkpt>
      <trkpt lat="47.29374" lon="-1.59184">
        <ele>46.4</ele>
      </trkpt>
      <trkpt lat="47.2938" lon="-1.59198">
        <ele>47.6</ele>
      </trkpt>
      <trkpt lat="47.29386" lon="-1.59227">
        <ele>50</ele>
      </trkpt>
      <trkpt lat="47.29403" lon="-1.59339">
        <ele>55.1</ele>
      </trkpt>
      <trkpt lat="47.29407" lon="-1.59352">
        <ele>55.4</ele>
      </trkpt>
      <trkpt lat="47.29423" lon="-1.59387">
        <ele>57.2</ele>
      </trkpt>
      <trkpt lat="47.29792" lon="-1.59201">
        <ele>61.2</ele>
      </trkpt>
      <trkpt lat="47.29969" lon="-1.59107">
        <ele>55</ele>
      </trkpt>
      <trkpt lat="47.30044" lon="-1.59073">
        <ele>52</ele>
      </trkpt>
      <trkpt lat="47.30032" lon="-1.59049">
        <ele>51.6</ele>
        <extensions>
          <visugpx:TrkExtension xmlns:visugpx="https://www.visugpx.com/editgpx/">
            <visugpx:node>4</visugpx:node>
            </visugpx:TrkExtension>
        </extensions>
      </trkpt>
      <trkpt lat="47.30044" lon="-1.59073">
        <ele>52</ele>
      </trkpt>
      <trkpt lat="47.30056" lon="-1.59101">
        <ele>52.6</ele>
      </trkpt>
      <trkpt lat="47.30067" lon="-1.59136">
        <ele>53.1</ele>
      </trkpt>
      <trkpt lat="47.30076" lon="-1.59142">
        <ele>52.6</ele>
      </trkpt>
      <trkpt lat="47.30087" lon="-1.59158">
        <ele>51.9</ele>
      </trkpt>
      <trkpt lat="47.30123" lon="-1.5923">
        <ele>49.9</ele>
      </trkpt>
      <trkpt lat="47.3013" lon="-1.59251">
        <ele>48.6</ele>
      </trkpt>
      <trkpt lat="47.30137" lon="-1.59277">
        <ele>48.1</ele>
      </trkpt>
      <trkpt lat="47.30159" lon="-1.59357">
        <ele>49.1</ele>
      </trkpt>
      <trkpt lat="47.30173" lon="-1.59354">
        <ele>48.7</ele>
      </trkpt>
      <trkpt lat="47.30194" lon="-1.59356">
        <ele>48.8</ele>
      </trkpt>
      <trkpt lat="47.30337" lon="-1.59391">
        <ele>39.7</ele>
      </trkpt>
      <trkpt lat="47.30359" lon="-1.59394">
        <ele>38.2</ele>
      </trkpt>
      <trkpt lat="47.30388" lon="-1.59393">
        <ele>37</ele>
      </trkpt>
      <trkpt lat="47.30476" lon="-1.59361">
        <ele>37.3</ele>
      </trkpt>
      <trkpt lat="47.30514" lon="-1.59357">
        <ele>39.4</ele>
      </trkpt>
      <trkpt lat="47.30538" lon="-1.59359">
        <ele>40.7</ele>
      </trkpt>
      <trkpt lat="47.30565" lon="-1.59364">
        <ele>42.7</ele>
      </trkpt>
      <trkpt lat="47.30671" lon="-1.59394">
        <ele>48.2</ele>
      </trkpt>
      <trkpt lat="47.30689" lon="-1.59397">
        <ele>48.8</ele>
      </trkpt>
      <trkpt lat="47.30702" lon="-1.59397">
        <ele>49.3</ele>
        <extensions>
          <visugpx:TrkExtension xmlns:visugpx="https://www.visugpx.com/editgpx/">
            <visugpx:node>5</visugpx:node>
            </visugpx:TrkExtension>
        </extensions>
      </trkpt>
      <trkpt lat="47.30723" lon="-1.59397">
        <ele>50</ele>
      </trkpt>
      <trkpt lat="47.3075" lon="-1.59393">
        <ele>49.9</ele>
      </trkpt>
      <trkpt lat="47.30794" lon="-1.59382">
        <ele>48.1</ele>
      </trkpt>
      <trkpt lat="47.30807" lon="-1.59382">
        <ele>47.4</ele>
      </trkpt>
      <trkpt lat="47.30856" lon="-1.59387">
        <ele>46.9</ele>
      </trkpt>
      <trkpt lat="47.3087" lon="-1.59395">
        <ele>46.8</ele>
      </trkpt>
      <trkpt lat="47.3088" lon="-1.59404">
        <ele>46.5</ele>
      </trkpt>
      <trkpt lat="47.30931" lon="-1.59459">
        <ele>40.9</ele>
      </trkpt>
      <trkpt lat="47.30978" lon="-1.59498">
        <ele>35.9</ele>
      </trkpt>
      <trkpt lat="47.30985" lon="-1.59509">
        <ele>35.1</ele>
      </trkpt>
      <trkpt lat="47.30987" lon="-1.59523">
        <ele>34.2</ele>
      </trkpt>
      <trkpt lat="47.30979" lon="-1.59636">
        <ele>29.6</ele>
      </trkpt>
      <trkpt lat="47.3098" lon="-1.59669">
        <ele>29.5</ele>
      </trkpt>
      <trkpt lat="47.30986" lon="-1.59708">
        <ele>30.5</ele>
      </trkpt>
      <trkpt lat="47.30992" lon="-1.59703">
        <ele>29.9</ele>
        <extensions>
          <visugpx:TrkExtension xmlns:visugpx="https://www.visugpx.com/editgpx/">
            <visugpx:node>6</visugpx:node>
            </visugpx:TrkExtension>
        </extensions>
      </trkpt>
      <trkpt lat="47.31046" lon="-1.59652">
        <ele>26</ele>
      </trkpt>
      <trkpt lat="47.31065" lon="-1.59647">
        <ele>25.9</ele>
      </trkpt>
      <trkpt lat="47.31102" lon="-1.59647">
        <ele>27</ele>
      </trkpt>
      <trkpt lat="47.31128" lon="-1.59638">
        <ele>27.2</ele>
      </trkpt>
      <trkpt lat="47.31148" lon="-1.59627">
        <ele>28</ele>
      </trkpt>
      <trkpt lat="47.31155" lon="-1.5961">
        <ele>27.1</ele>
      </trkpt>
      <trkpt lat="47.31164" lon="-1.59586">
        <ele>25.2</ele>
      </trkpt>
      <trkpt lat="47.31166" lon="-1.59574">
        <ele>24</ele>
      </trkpt>
      <trkpt lat="47.31175" lon="-1.59557">
        <ele>22.5</ele>
      </trkpt>
      <trkpt lat="47.31192" lon="-1.59535">
        <ele>20.9</ele>
      </trkpt>
      <trkpt lat="47.31217" lon="-1.5951">
        <ele>19.6</ele>
      </trkpt>
      <trkpt lat="47.31217" lon="-1.59512">
        <ele>19.6</ele>
        <extensions>
          <visugpx:TrkExtension xmlns:visugpx="https://www.visugpx.com/editgpx/">
            <visugpx:node>7</visugpx:node>
            </visugpx:TrkExtension>
        </extensions>
      </trkpt>
      <trkpt lat="47.3122" lon="-1.59521">
        <ele>19.8</ele>
      </trkpt>
      <trkpt lat="47.31241" lon="-1.59522">
        <ele>19.1</ele>
      </trkpt>
      <trkpt lat="47.31267" lon="-1.59528">
        <ele>17.8</ele>
      </trkpt>
      <trkpt lat="47.31277" lon="-1.59547">
        <ele>18.5</ele>
      </trkpt>
      <trkpt lat="47.31286" lon="-1.59569">
        <ele>18.8</ele>
      </trkpt>
      <trkpt lat="47.31311" lon="-1.59658">
        <ele>17.8</ele>
      </trkpt>
      <trkpt lat="47.31317" lon="-1.5969">
        <ele>17.8</ele>
      </trkpt>
      <trkpt lat="47.31336" lon="-1.59794">
        <ele>16.2</ele>
      </trkpt>
      <trkpt lat="47.31341" lon="-1.59851">
        <ele>16.9</ele>
      </trkpt>
      <trkpt lat="47.31339" lon="-1.59913">
        <ele>17.2</ele>
      </trkpt>
      <trkpt lat="47.31336" lon="-1.5993">
        <ele>17.2</ele>
      </trkpt>
      <trkpt lat="47.31335" lon="-1.5996">
        <ele>16.8</ele>
      </trkpt>
      <trkpt lat="47.31333" lon="-1.59987">
        <ele>16.5</ele>
      </trkpt>
      <trkpt lat="47.31332" lon="-1.59988">
        <ele>16.6</ele>
        <extensions>
          <visugpx:TrkExtension xmlns:visugpx="https://www.visugpx.com/editgpx/">
            <visugpx:node>8</visugpx:node>
            </visugpx:TrkExtension>
        </extensions>
      </trkpt>
      <trkpt lat="47.31333" lon="-1.59987">
        <ele>16.5</ele>
      </trkpt>
      <trkpt lat="47.31358" lon="-1.59963">
        <ele>14.3</ele>
      </trkpt>
      <trkpt lat="47.31371" lon="-1.59959">
        <ele>13.8</ele>
      </trkpt>
      <trkpt lat="47.31382" lon="-1.59959">
        <ele>13.6</ele>
      </trkpt>
      <trkpt lat="47.31434" lon="-1.59972">
        <ele>14.6</ele>
      </trkpt>
      <trkpt lat="47.3144" lon="-1.59942">
        <ele>15.6</ele>
      </trkpt>
      <trkpt lat="47.31461" lon="-1.59807">
        <ele>14.8</ele>
      </trkpt>
      <trkpt lat="47.31479" lon="-1.59726">
        <ele>14.4</ele>
      </trkpt>
      <trkpt lat="47.31493" lon="-1.59644">
        <ele>14.8</ele>
      </trkpt>
      <trkpt lat="47.31502" lon="-1.59531">
        <ele>13.2</ele>
      </trkpt>
      <trkpt lat="47.31508" lon="-1.59479">
        <ele>14.4</ele>
      </trkpt>
      <trkpt lat="47.31509" lon="-1.59478">
        <ele>14.4</ele>
        <extensions>
          <visugpx:TrkExtension xmlns:visugpx="https://www.visugpx.com/editgpx/">
            <visugpx:node>9</visugpx:node>
            </visugpx:TrkExtension>
        </extensions>
      </trkpt>
      <trkpt lat="47.31538" lon="-1.59403">
        <ele>13.9</ele>
      </trkpt>
      <trkpt lat="47.31553" lon="-1.59372">
        <ele>14.3</ele>
      </trkpt>
      <trkpt lat="47.31555" lon="-1.59356">
        <ele>14</ele>
      </trkpt>
      <trkpt lat="47.3151" lon="-1.59135">
        <ele>13.2</ele>
      </trkpt>
      <trkpt lat="47.31524" lon="-1.58988">
        <ele>13.5</ele>
      </trkpt>
      <trkpt lat="47.31526" lon="-1.58979">
        <ele>13.2</ele>
      </trkpt>
      <trkpt lat="47.3153" lon="-1.58971">
        <ele>13.2</ele>
      </trkpt>
      <trkpt lat="47.31547" lon="-1.58973">
        <ele>14.4</ele>
      </trkpt>
      <trkpt lat="47.31649" lon="-1.59035">
        <ele>22.7</ele>
      </trkpt>
      <trkpt lat="47.3165" lon="-1.59026">
        <ele>22.8</ele>
        <extensions>
          <visugpx:TrkExtension xmlns:visugpx="https://www.visugpx.com/editgpx/">
            <visugpx:node>10</visugpx:node>
            </visugpx:TrkExtension>
        </extensions>
      </trkpt>
      <trkpt lat="47.31649" lon="-1.59035">
        <ele>22.7</ele>
      </trkpt>
      <trkpt lat="47.31666" lon="-1.59042">
        <ele>24</ele>
      </trkpt>
      <trkpt lat="47.31684" lon="-1.59044">
        <ele>25.2</ele>
      </trkpt>
      <trkpt lat="47.31719" lon="-1.59036">
        <ele>27.5</ele>
      </trkpt>
      <trkpt lat="47.31745" lon="-1.59042">
        <ele>28.3</ele>
      </trkpt>
      <trkpt lat="47.31775" lon="-1.59048">
        <ele>30.1</ele>
      </trkpt>
      <trkpt lat="47.31881" lon="-1.5907">
        <ele>34.9</ele>
      </trkpt>
      <trkpt lat="47.32156" lon="-1.59193">
        <ele>36.3</ele>
      </trkpt>
      <trkpt lat="47.32158" lon="-1.59205">
        <ele>36.7</ele>
      </trkpt>
      <trkpt lat="47.32162" lon="-1.59365">
        <ele>40.3</ele>
      </trkpt>
      <trkpt lat="47.32177" lon="-1.59362">
        <ele>39.7</ele>
      </trkpt>
      <trkpt lat="47.32209" lon="-1.59338">
        <ele>37.6</ele>
      </trkpt>
      <trkpt lat="47.3222" lon="-1.59335">
        <ele>37.1</ele>
      </trkpt>
      <trkpt lat="47.32232" lon="-1.59337">
        <ele>36.8</ele>
      </trkpt>
      <trkpt lat="47.32238" lon="-1.59343">
        <ele>36.8</ele>
        <extensions>
          <visugpx:TrkExtension xmlns:visugpx="https://www.visugpx.com/editgpx/">
            <visugpx:node>11</visugpx:node>
            </visugpx:TrkExtension>
        </extensions>
      </trkpt>
      <trkpt lat="47.32242" lon="-1.59347">
        <ele>36.8</ele>
      </trkpt>
      <trkpt lat="47.32255" lon="-1.59365">
        <ele>37</ele>
      </trkpt>
      <trkpt lat="47.32296" lon="-1.5945">
        <ele>38.4</ele>
      </trkpt>
      <trkpt lat="47.32302" lon="-1.59459">
        <ele>38.8</ele>
      </trkpt>
      <trkpt lat="47.32345" lon="-1.59474">
        <ele>41.4</ele>
      </trkpt>
      <trkpt lat="47.32529" lon="-1.59528">
        <ele>44.1</ele>
      </trkpt>
      <trkpt lat="47.32572" lon="-1.5954">
        <ele>45.6</ele>
      </trkpt>
      <trkpt lat="47.32579" lon="-1.59574">
        <ele>45.9</ele>
        <extensions>
          <visugpx:TrkExtension xmlns:visugpx="https://www.visugpx.com/editgpx/">
            <visugpx:node>12</visugpx:node>
            </visugpx:TrkExtension>
        </extensions>
      </trkpt>
      <trkpt lat="47.32572" lon="-1.5954">
        <ele>45.6</ele>
      </trkpt>
      <trkpt lat="47.32438" lon="-1.5889">
        <ele>36.3</ele>
      </trkpt>
      <trkpt lat="47.32415" lon="-1.58796">
        <ele>37.2</ele>
      </trkpt>
      <trkpt lat="47.32395" lon="-1.58721">
        <ele>37.5</ele>
      </trkpt>
      <trkpt lat="47.32384" lon="-1.58688">
        <ele>37.9</ele>
      </trkpt>
      <trkpt lat="47.32345" lon="-1.58587">
        <ele>38.7</ele>
      </trkpt>
      <trkpt lat="47.32305" lon="-1.58505">
        <ele>38.8</ele>
      </trkpt>
      <trkpt lat="47.32281" lon="-1.58461">
        <ele>38.1</ele>
        <extensions>
          <visugpx:TrkExtension xmlns:visugpx="https://www.visugpx.com/editgpx/">
            <visugpx:node>13</visugpx:node>
            </visugpx:TrkExtension>
        </extensions>
      </trkpt>
      <trkpt lat="47.32258" lon="-1.58419">
        <ele>38.4</ele>
      </trkpt>
      <trkpt lat="47.32228" lon="-1.58377">
        <ele>39.2</ele>
      </trkpt>
      <trkpt lat="47.32197" lon="-1.58341">
        <ele>39.8</ele>
      </trkpt>
      <trkpt lat="47.32021" lon="-1.58147">
        <ele>42</ele>
      </trkpt>
      <trkpt lat="47.31315" lon="-1.57367">
        <ele>37.8</ele>
      </trkpt>
      <trkpt lat="47.31156" lon="-1.57195">
        <ele>43.8</ele>
      </trkpt>
      <trkpt lat="47.3113" lon="-1.57162">
        <ele>44.9</ele>
        <extensions>
          <visugpx:TrkExtension xmlns:visugpx="https://www.visugpx.com/editgpx/">
            <visugpx:node>14</visugpx:node>
            </visugpx:TrkExtension>
        </extensions>
      </trkpt>
      <trkpt lat="47.31106" lon="-1.57133">
        <ele>45.2</ele>
      </trkpt>
      <trkpt lat="47.31078" lon="-1.57094">
        <ele>45.5</ele>
      </trkpt>
      <trkpt lat="47.31044" lon="-1.57039">
        <ele>45</ele>
      </trkpt>
      <trkpt lat="47.30991" lon="-1.56947">
        <ele>43.1</ele>
      </trkpt>
      <trkpt lat="47.30983" lon="-1.56934">
        <ele>42.6</ele>
      </trkpt>
      <trkpt lat="47.30936" lon="-1.56826">
        <ele>38.7</ele>
      </trkpt>
      <trkpt lat="47.30851" lon="-1.56619">
        <ele>37.4</ele>
      </trkpt>
      <trkpt lat="47.30842" lon="-1.56601">
        <ele>37.4</ele>
      </trkpt>
      <trkpt lat="47.30827" lon="-1.56594">
        <ele>37.5</ele>
      </trkpt>
      <trkpt lat="47.30817" lon="-1.56586">
        <ele>37.6</ele>
      </trkpt>
      <trkpt lat="47.30806" lon="-1.56571">
        <ele>38</ele>
      </trkpt>
      <trkpt lat="47.30786" lon="-1.56533">
        <ele>38.7</ele>
      </trkpt>
      <trkpt lat="47.30754" lon="-1.56466">
        <ele>39</ele>
      </trkpt>
      <trkpt lat="47.3075" lon="-1.56456">
        <ele>39</ele>
      </trkpt>
      <trkpt lat="47.30745" lon="-1.56461">
        <ele>39</ele>
        <extensions>
          <visugpx:TrkExtension xmlns:visugpx="https://www.visugpx.com/editgpx/">
            <visugpx:node>15</visugpx:node>
            </visugpx:TrkExtension>
        </extensions>
      </trkpt>
      <trkpt lat="47.3075" lon="-1.56456">
        <ele>39</ele>
      </trkpt>
      <trkpt lat="47.30754" lon="-1.56466">
        <ele>39</ele>
      </trkpt>
      <trkpt lat="47.30687" lon="-1.56539">
        <ele>39</ele>
      </trkpt>
      <trkpt lat="47.30651" lon="-1.56555">
        <ele>39</ele>
      </trkpt>
      <trkpt lat="47.3063" lon="-1.56576">
        <ele>39</ele>
      </trkpt>
      <trkpt lat="47.30624" lon="-1.56578">
        <ele>39</ele>
      </trkpt>
      <trkpt lat="47.30595" lon="-1.56546">
        <ele>38.3</ele>
      </trkpt>
      <trkpt lat="47.30535" lon="-1.56473">
        <ele>37</ele>
      </trkpt>
      <trkpt lat="47.30477" lon="-1.5638">
        <ele>35</ele>
      </trkpt>
      <trkpt lat="47.30448" lon="-1.56353">
        <ele>34.1</ele>
      </trkpt>
      <trkpt lat="47.30427" lon="-1.56331">
        <ele>34</ele>
      </trkpt>
      <trkpt lat="47.30391" lon="-1.56298">
        <ele>33.7</ele>
      </trkpt>
      <trkpt lat="47.30339" lon="-1.56259">
        <ele>33</ele>
      </trkpt>
      <trkpt lat="47.30306" lon="-1.56239">
        <ele>32</ele>
      </trkpt>
      <trkpt lat="47.30272" lon="-1.56221">
        <ele>31.8</ele>
      </trkpt>
      <trkpt lat="47.3025" lon="-1.56212">
        <ele>31</ele>
      </trkpt>
      <trkpt lat="47.30208" lon="-1.56199">
        <ele>31</ele>
        <extensions>
          <visugpx:TrkExtension xmlns:visugpx="https://www.visugpx.com/editgpx/">
            <visugpx:node>16</visugpx:node>
            </visugpx:TrkExtension>
        </extensions>
      </trkpt>
      <trkpt lat="47.30207" lon="-1.56198">
        <ele>31</ele>
      </trkpt>
      <trkpt lat="47.29989" lon="-1.56191">
        <ele>34</ele>
      </trkpt>
      <trkpt lat="47.29924" lon="-1.56179">
        <ele>36.1</ele>
      </trkpt>
      <trkpt lat="47.29925" lon="-1.56173">
        <ele>35.9</ele>
        <extensions>
          <visugpx:TrkExtension xmlns:visugpx="https://www.visugpx.com/editgpx/">
            <visugpx:node>17</visugpx:node>
            </visugpx:TrkExtension>
        </extensions>
      </trkpt>
      <trkpt lat="47.29934" lon="-1.56127">
        <ele>35.4</ele>
      </trkpt>
      <trkpt lat="47.29938" lon="-1.56103">
        <ele>35.2</ele>
      </trkpt>
      <trkpt lat="47.29939" lon="-1.56078">
        <ele>35.2</ele>
      </trkpt>
      <trkpt lat="47.29939" lon="-1.56068">
        <ele>35.2</ele>
        <extensions>
          <visugpx:TrkExtension xmlns:visugpx="https://www.visugpx.com/editgpx/">
            <visugpx:node>18</visugpx:node>
            </visugpx:TrkExtension>
        </extensions>
      </trkpt>
      <trkpt lat="47.29939" lon="-1.56078">
        <ele>35.2</ele>
      </trkpt>
      <trkpt lat="47.29914" lon="-1.56075">
        <ele>36.1</ele>
      </trkpt>
      <trkpt lat="47.29895" lon="-1.56085">
        <ele>36.8</ele>
      </trkpt>
      <trkpt lat="47.29884" lon="-1.56093">
        <ele>37.4</ele>
      </trkpt>
      <trkpt lat="47.29852" lon="-1.56114">
        <ele>39.3</ele>
      </trkpt>
      <trkpt lat="47.2984" lon="-1.56123">
        <ele>39.8</ele>
      </trkpt>
      <trkpt lat="47.29828" lon="-1.56128">
        <ele>40.3</ele>
      </trkpt>
      <trkpt lat="47.29814" lon="-1.56127">
        <ele>41</ele>
      </trkpt>
      <trkpt lat="47.29756" lon="-1.56102">
        <ele>42.8</ele>
      </trkpt>
      <trkpt lat="47.29672" lon="-1.56069">
        <ele>44.9</ele>
      </trkpt>
      <trkpt lat="47.29661" lon="-1.56078">
        <ele>45.2</ele>
      </trkpt>
      <trkpt lat="47.29589" lon="-1.5605">
        <ele>46</ele>
        <extensions>
          <visugpx:TrkExtension xmlns:visugpx="https://www.visugpx.com/editgpx/">
            <visugpx:node>19</visugpx:node>
            </visugpx:TrkExtension>
        </extensions>
      </trkpt>
      <trkpt lat="47.29584" lon="-1.56048">
        <ele>46</ele>
      </trkpt>
      <trkpt lat="47.29586" lon="-1.55985">
        <ele>46</ele>
      </trkpt>
      <trkpt lat="47.2959" lon="-1.55875">
        <ele>45.4</ele>
      </trkpt>
      <trkpt lat="47.29593" lon="-1.55874">
        <ele>45.3</ele>
        <extensions>
          <visugpx:TrkExtension xmlns:visugpx="https://www.visugpx.com/editgpx/">
            <visugpx:node>20</visugpx:node>
            </visugpx:TrkExtension>
        </extensions>
      </trkpt>
    </trkseg>
  </trk>
  <trk>
    <name><![CDATA[ChapelleE_BoucleNordOuest_12.5km_4]]></name>
    <trkseg>
      <trkpt lat="47.30988" lon="-1.59724">
        <ele>30.9</ele>
      </trkpt>
      <trkpt lat="47.30993" lon="-1.59764">
        <ele>31.9</ele>
      </trkpt>
      <trkpt lat="47.31019" lon="-1.59949">
        <ele>37.6</ele>
      </trkpt>
      <trkpt lat="47.31021" lon="-1.59967">
        <ele>38.7</ele>
      </trkpt>
      <trkpt lat="47.3103" lon="-1.60034">
        <ele>41.4</ele>
      </trkpt>
      <trkpt lat="47.31036" lon="-1.60053">
        <ele>42.3</ele>
      </trkpt>
      <trkpt lat="47.31055" lon="-1.60091">
        <ele>41</ele>
      </trkpt>
      <trkpt lat="47.31068" lon="-1.60123">
        <ele>40.3</ele>
      </trkpt>
      <trkpt lat="47.31079" lon="-1.60122">
        <ele>39.4</ele>
      </trkpt>
      <trkpt lat="47.3113" lon="-1.60265">
        <ele>41.3</ele>
      </trkpt>
      <trkpt lat="47.31131" lon="-1.60273">
        <ele>41.4</ele>
      </trkpt>
      <trkpt lat="47.31138" lon="-1.60288">
        <ele>41.1</ele>
        <extensions>
          <visugpx:TrkExtension xmlns:visugpx="https://www.visugpx.com/editgpx/">
            <visugpx:node>1</visugpx:node>
            </visugpx:TrkExtension>
        </extensions>
      </trkpt>
      <trkpt lat="47.31131" lon="-1.60273">
        <ele>41.4</ele>
      </trkpt>
      <trkpt lat="47.31127" lon="-1.60284">
        <ele>42</ele>
      </trkpt>
      <trkpt lat="47.31093" lon="-1.60304">
        <ele>45.9</ele>
      </trkpt>
      <trkpt lat="47.31052" lon="-1.60328">
        <ele>50</ele>
      </trkpt>
      <trkpt lat="47.31026" lon="-1.60337">
        <ele>51.1</ele>
      </trkpt>
      <trkpt lat="47.31008" lon="-1.6034">
        <ele>51.7</ele>
      </trkpt>
      <trkpt lat="47.30962" lon="-1.60327">
        <ele>53.4</ele>
      </trkpt>
      <trkpt lat="47.3094" lon="-1.60324">
        <ele>54.1</ele>
      </trkpt>
      <trkpt lat="47.30939" lon="-1.60351">
        <ele>54</ele>
      </trkpt>
      <trkpt lat="47.30957" lon="-1.60389">
        <ele>53.1</ele>
      </trkpt>
      <trkpt lat="47.31033" lon="-1.60548">
        <ele>47.3</ele>
      </trkpt>
      <trkpt lat="47.3105" lon="-1.6057">
        <ele>46.9</ele>
      </trkpt>
      <trkpt lat="47.31062" lon="-1.60612">
        <ele>46.2</ele>
      </trkpt>
      <trkpt lat="47.31081" lon="-1.60703">
        <ele>45.6</ele>
      </trkpt>
      <trkpt lat="47.31088" lon="-1.60724">
        <ele>45.2</ele>
        <extensions>
          <visugpx:TrkExtension xmlns:visugpx="https://www.visugpx.com/editgpx/">
            <visugpx:node>2</visugpx:node>
            </visugpx:TrkExtension>
        </extensions>
      </trkpt>
      <trkpt lat="47.31089" lon="-1.60726">
        <ele>45.2</ele>
      </trkpt>
      <trkpt lat="47.31033" lon="-1.60748">
        <ele>43.3</ele>
      </trkpt>
      <trkpt lat="47.31005" lon="-1.60755">
        <ele>41.2</ele>
      </trkpt>
      <trkpt lat="47.30975" lon="-1.60759">
        <ele>38.6</ele>
      </trkpt>
      <trkpt lat="47.30949" lon="-1.60759">
        <ele>36.1</ele>
      </trkpt>
      <trkpt lat="47.30933" lon="-1.60765">
        <ele>35.5</ele>
      </trkpt>
      <trkpt lat="47.3086" lon="-1.60818">
        <ele>35.6</ele>
      </trkpt>
      <trkpt lat="47.3082" lon="-1.60844">
        <ele>36.9</ele>
        <extensions>
          <visugpx:TrkExtension xmlns:visugpx="https://www.visugpx.com/editgpx/">
            <visugpx:node>3</visugpx:node>
            </visugpx:TrkExtension>
        </extensions>
      </trkpt>
      <trkpt lat="47.30806" lon="-1.60854">
        <ele>36.5</ele>
      </trkpt>
      <trkpt lat="47.30806" lon="-1.60865">
        <ele>35.7</ele>
      </trkpt>
      <trkpt lat="47.30803" lon="-1.61121">
        <ele>37.3</ele>
      </trkpt>
      <trkpt lat="47.30803" lon="-1.61217">
        <ele>43.4</ele>
      </trkpt>
      <trkpt lat="47.30805" lon="-1.61247">
        <ele>44.8</ele>
      </trkpt>
      <trkpt lat="47.30812" lon="-1.61274">
        <ele>45.5</ele>
      </trkpt>
      <trkpt lat="47.30821" lon="-1.61299">
        <ele>46.5</ele>
      </trkpt>
      <trkpt lat="47.30831" lon="-1.61352">
        <ele>46.9</ele>
        <extensions>
          <visugpx:TrkExtension xmlns:visugpx="https://www.visugpx.com/editgpx/">
            <visugpx:node>4</visugpx:node>
            </visugpx:TrkExtension>
        </extensions>
      </trkpt>
      <trkpt lat="47.30833" lon="-1.61359">
        <ele>47</ele>
      </trkpt>
      <trkpt lat="47.30837" lon="-1.61386">
        <ele>48</ele>
      </trkpt>
      <trkpt lat="47.30849" lon="-1.6143">
        <ele>48.6</ele>
      </trkpt>
      <trkpt lat="47.30865" lon="-1.61462">
        <ele>49.8</ele>
      </trkpt>
      <trkpt lat="47.30873" lon="-1.61457">
        <ele>50.1</ele>
      </trkpt>
      <trkpt lat="47.3089" lon="-1.61457">
        <ele>51</ele>
      </trkpt>
      <trkpt lat="47.30904" lon="-1.61435">
        <ele>51</ele>
      </trkpt>
      <trkpt lat="47.30938" lon="-1.61426">
        <ele>51</ele>
      </trkpt>
      <trkpt lat="47.30942" lon="-1.61426">
        <ele>51</ele>
        <extensions>
          <visugpx:TrkExtension xmlns:visugpx="https://www.visugpx.com/editgpx/">
            <visugpx:node>5</visugpx:node>
            </visugpx:TrkExtension>
        </extensions>
      </trkpt>
      <trkpt lat="47.31017" lon="-1.61411">
        <ele>50.7</ele>
      </trkpt>
      <trkpt lat="47.31064" lon="-1.61408">
        <ele>48.1</ele>
      </trkpt>
      <trkpt lat="47.31211" lon="-1.61368">
        <ele>41.7</ele>
      </trkpt>
      <trkpt lat="47.31229" lon="-1.61354">
        <ele>40.3</ele>
      </trkpt>
      <trkpt lat="47.31238" lon="-1.61342">
        <ele>39.2</ele>
      </trkpt>
      <trkpt lat="47.31256" lon="-1.6131">
        <ele>37.1</ele>
      </trkpt>
      <trkpt lat="47.31284" lon="-1.61284">
        <ele>36.2</ele>
      </trkpt>
      <trkpt lat="47.3129" lon="-1.6126">
        <ele>35.4</ele>
      </trkpt>
      <trkpt lat="47.31295" lon="-1.61252">
        <ele>35.1</ele>
      </trkpt>
      <trkpt lat="47.3133" lon="-1.61241">
        <ele>34.7</ele>
      </trkpt>
      <trkpt lat="47.31437" lon="-1.61175">
        <ele>31.8</ele>
      </trkpt>
      <trkpt lat="47.3146" lon="-1.61163">
        <ele>32.9</ele>
      </trkpt>
      <trkpt lat="47.31553" lon="-1.6113">
        <ele>33.3</ele>
      </trkpt>
      <trkpt lat="47.31599" lon="-1.6111">
        <ele>30.9</ele>
        <extensions>
          <visugpx:TrkExtension xmlns:visugpx="https://www.visugpx.com/editgpx/">
            <visugpx:node>6</visugpx:node>
            </visugpx:TrkExtension>
        </extensions>
      </trkpt>
      <trkpt lat="47.31606" lon="-1.61107">
        <ele>30.3</ele>
      </trkpt>
      <trkpt lat="47.31566" lon="-1.60929">
        <ele>21.9</ele>
      </trkpt>
      <trkpt lat="47.31558" lon="-1.60882">
        <ele>19.4</ele>
      </trkpt>
      <trkpt lat="47.31553" lon="-1.6083">
        <ele>17.8</ele>
      </trkpt>
      <trkpt lat="47.31552" lon="-1.60794">
        <ele>17.9</ele>
      </trkpt>
      <trkpt lat="47.31556" lon="-1.60693">
        <ele>19.9</ele>
      </trkpt>
      <trkpt lat="47.31553" lon="-1.60666">
        <ele>20.5</ele>
      </trkpt>
      <trkpt lat="47.31549" lon="-1.60653">
        <ele>20.8</ele>
      </trkpt>
      <trkpt lat="47.31523" lon="-1.60582">
        <ele>21.8</ele>
      </trkpt>
      <trkpt lat="47.31494" lon="-1.60529">
        <ele>24.2</ele>
      </trkpt>
      <trkpt lat="47.31462" lon="-1.60476">
        <ele>28.8</ele>
      </trkpt>
      <trkpt lat="47.31442" lon="-1.60453">
        <ele>31.7</ele>
      </trkpt>
      <trkpt lat="47.31436" lon="-1.60448">
        <ele>32.4</ele>
        <extensions>
          <visugpx:TrkExtension xmlns:visugpx="https://www.visugpx.com/editgpx/">
            <visugpx:node>7</visugpx:node>
            </visugpx:TrkExtension>
        </extensions>
      </trkpt>
      <trkpt lat="47.31429" lon="-1.60442">
        <ele>33.1</ele>
      </trkpt>
      <trkpt lat="47.31382" lon="-1.60423">
        <ele>35.7</ele>
      </trkpt>
      <trkpt lat="47.31354" lon="-1.60419">
        <ele>35.9</ele>
      </trkpt>
      <trkpt lat="47.31342" lon="-1.6042">
        <ele>35.6</ele>
      </trkpt>
      <trkpt lat="47.3131" lon="-1.60429">
        <ele>34.7</ele>
      </trkpt>
      <trkpt lat="47.31252" lon="-1.60458">
        <ele>33.1</ele>
      </trkpt>
      <trkpt lat="47.31237" lon="-1.6046">
        <ele>33.1</ele>
      </trkpt>
      <trkpt lat="47.31219" lon="-1.60455">
        <ele>32.9</ele>
      </trkpt>
      <trkpt lat="47.31207" lon="-1.60447">
        <ele>32.8</ele>
      </trkpt>
      <trkpt lat="47.31131" lon="-1.60273">
        <ele>41.4</ele>
      </trkpt>
      <trkpt lat="47.3113" lon="-1.60265">
        <ele>41.3</ele>
      </trkpt>
      <trkpt lat="47.31079" lon="-1.60122">
        <ele>39.4</ele>
      </trkpt>
      <trkpt lat="47.3109" lon="-1.60119">
        <ele>38.3</ele>
        <extensions>
          <visugpx:TrkExtension xmlns:visugpx="https://www.visugpx.com/editgpx/">
            <visugpx:node>8</visugpx:node>
            </visugpx:TrkExtension>
        </extensions>
      </trkpt>
      <trkpt lat="47.3112" lon="-1.60113">
        <ele>35.4</ele>
      </trkpt>
      <trkpt lat="47.31157" lon="-1.60096">
        <ele>32.2</ele>
      </trkpt>
      <trkpt lat="47.31256" lon="-1.60047">
        <ele>26.1</ele>
      </trkpt>
      <trkpt lat="47.31285" lon="-1.6003">
        <ele>24.4</ele>
      </trkpt>
      <trkpt lat="47.31322" lon="-1.59999">
        <ele>17.7</ele>
      </trkpt>
      <trkpt lat="47.3133" lon="-1.59991">
        <ele>16.8</ele>
        <extensions>
          <visugpx:TrkExtension xmlns:visugpx="https://www.visugpx.com/editgpx/">
            <visugpx:node>9</visugpx:node>
            </visugpx:TrkExtension>
        </extensions>
      </trkpt>
    </trkseg>
  </trk>
</gpx>